Regional Weather Roundup
Issued by NWS

Home | Current Version | Previous Version | Text Only | Print | Product List | Glossary Off
Versions: 1 2 3 4 5 6 7 8 9 10 11 12 13 14 15 16 17 18 19 20 21 22 23 24 25 26 27 28 29 30 31 32 33 34 35 36 37 38 39 40 41 42 43 44 45 46 47 48 49 50

000
ASUS45 KCYS 220010
RWRWY

WYOMING REGIONAL WEATHER ROUNDUP
NATIONAL WEATHER SERVICE CHEYENNE WY
600 PM MDT SUN SEP 21 2014

NOTE:  "FAIR" INDICATES FEW OR NO CLOUDS BELOW 12,000 FEET
WITH NO SIGNIFICANT WEATHER AND/OR OBSTRUCTIONS TO VISIBILITY.

WYZ001-220100-
YELLOWSTONE NATIONAL PARK

CITY           SKY/WX    TMP DP  RH WIND       PRES   REMARKS
LK YELLOWSTONE   N/A     61  46  57 CALM      30.33S
6HR MIN TEMP:  58; 6HR MAX TEMP:  68;

W YELLOWSTONE  NOT AVBL

$$
WYZ002>013-054>058-071-098>099-220100-
NORTHERN WYOMING

CITY           SKY/WX    TMP DP  RH WIND       PRES   REMARKS
JACKSON        CLOUDY    70  37  30 S13       30.24S
CODY             N/A    N/A N/A N/A MISG        N/A
GREYBULL       PTSUNNY   77  41  27 S5        30.12F
6HR MIN TEMP:  69; 6HR MAX TEMP:  81;

WORLAND        CLOUDY    77  45  32 N5        30.13F
6HR MIN TEMP:  69; 6HR MAX TEMP:  79;

SHERIDAN       MOSUNNY   75  43  31 SE10      30.16F
6HR MIN TEMP:  70; 6HR MAX TEMP:  80;

BUFFALO        PTSUNNY   71  41  33 SE8       30.24S
6HR MIN TEMP:  70; 6HR MAX TEMP:  75;

GILLETTE       MOSUNNY   73  41  31 SE12      30.23S
6HR MIN TEMP:  70; 6HR MAX TEMP:  75;

HULETT         FAIR      70  37  30 MISG      30.26
NEWCASTLE      FAIR      70  34  26 SE10      30.26

$$
WYZ014>020-022>026-101>103-220100-
CENTRAL WYOMING

CITY           SKY/WX    TMP DP  RH WIND       PRES   REMARKS
BIG PINEY      LGT RAIN  55  51  86 CALM      30.32F
6HR MIN TEMP:  55; 6HR MAX TEMP:  69; 6HR PCP: TRACE;

PINEDALE       CLOUDY    59  41  51 S10       30.33S
DUBOIS         MOCLDY    63  34  34 E6        30.31F
LANDER         CLOUDY    70  41  34 CALM      30.20F
6HR MIN TEMP:  65; 6HR MAX TEMP:  75;

RIVERTON       PTSUNNY   72  38  29 CALM      30.22F
6HR MIN TEMP:  64; 6HR MAX TEMP:  73;

CASPER         MOSUNNY   73  41  31 E14       30.22F
6HR MIN TEMP:  68; 6HR MAX TEMP:  77;

DOUGLAS        PTSUNNY   71  41  33 SE22G29   30.26S
6HR MIN TEMP:  70; 6HR MAX TEMP:  75;


$$
WYZ021-027>030-104>119-220100-
SOUTHERN WYOMING

CITY           SKY/WX    TMP DP  RH WIND       PRES   REMARKS
EVANSTON       CLOUDY    52  50  93 E9        30.30F
6HR MIN TEMP:  50; 6HR MAX TEMP:  53; 6HR PCP:  0.25;

KEMMERER       DRIZZLE   52  48  87 CALM      30.31S
FORT BRIDGER     N/A     52  51  97 W3        30.33F
ROCK SPRINGS   CLOUDY    65  45  48 NE5       30.26F
6HR MIN TEMP:  60; 6HR MAX TEMP:  66; 6HR PCP: TRACE;

DIXON          FAIR      66  46  47 E14       30.28F
RAWLINS        CLOUDY    69  42  37 W8        30.30F
6HR MIN TEMP:  65; 6HR MAX TEMP:  74;

SARATOGA       MOCLDY    68  43  40 SE9       30.33S
LARAMIE        CLOUDY    60  46  59 S17       30.39R
6HR MIN TEMP:  60; 6HR MAX TEMP:  72; 6HR PCP: TRACE;

CHEYENNE       CLOUDY    66  43  43 SE8       30.34R
6HR MIN TEMP:  65; 6HR MAX TEMP:  71;

TORRINGTON     MOCLDY    69  41  36 E15       30.24F
6HR MIN TEMP:  66; 6HR MAX TEMP:  75;

PINE BLUFFS    FAIR      66  41  39 E9G17     30.31S

$$



USA.gov is the U.S. government's official web portal to all federal, state and local government web resources and services.